Regional Weather Roundup
Issued by NWS

Home | Current Version | Previous Version | Graphics & Text | Print | Product List | Glossary On
Versions: 1 2 3 4 5 6 7 8 9 10 11 12 13 14 15 16 17 18 19 20 21 22 23 24 25 26
000
ASUS45 KCYS 260010
RWRWY

WYOMING REGIONAL WEATHER ROUNDUP
NATIONAL WEATHER SERVICE CHEYENNE WY
600 PM MDT WED MAY 25 2016

NOTE:  "FAIR" INDICATES FEW OR NO CLOUDS BELOW 12,000 FEET
WITH NO SIGNIFICANT WEATHER AND/OR OBSTRUCTIONS TO VISIBILITY.

WYZ001-260100-
YELLOWSTONE NATIONAL PARK

CITY           SKY/WX    TMP DP  RH WIND       PRES   REMARKS
LK YELLOWSTONE   N/A     39  33  79 NW8G20    30.10R WCI  33
6HR MIN TEMP:  36; 6HR MAX TEMP:  46; 6HR PCP:  0.07;

W YELLOWSTONE  NOT AVBL

$$
WYZ002>013-054>058-071-098>099-260100-
NORTHERN WYOMING

CITY           SKY/WX    TMP DP  RH WIND       PRES   REMARKS
JACKSON        NOT AVBL
CODY           PTSUNNY   55  41  58 N7        29.93S
GREYBULL       LGT RAIN  53  48  83 E6        29.93R
6HR MIN TEMP:  52; 6HR MAX TEMP:  62;

WORLAND        PTSUNNY   61  43  51 E8        29.88F
6HR MIN TEMP:  54; 6HR MAX TEMP:  63; 6HR PCP:  0.02;

SHERIDAN       PTSUNNY   57  46  66 W5        29.92R
6HR MIN TEMP:  49; 6HR MAX TEMP:  60; 6HR PCP:  0.06;

BUFFALO        FAIR      57  42  57 SW3       29.94S
6HR MIN TEMP:  52; 6HR MAX TEMP:  58;

GILLETTE       PTSUNNY   55  42  61 E9        29.89F
6HR MIN TEMP:  53; 6HR MAX TEMP:  62; 6HR PCP: TRACE;

HULETT         LGT RAIN  50  45  81 CALM      29.94F
NEWCASTLE      FAIR      63  36  36 CALM      29.91S

$$
WYZ014>020-022>026-101>103-260100-
CENTRAL WYOMING

CITY           SKY/WX    TMP DP  RH WIND       PRES   REMARKS
BIG PINEY      PTSUNNY   50  35  56 NW5       30.08S
6HR MIN TEMP:  43; 6HR MAX TEMP:  54; 6HR PCP:  0.02;

PINEDALE       FAIR      46  34  61 W3        30.09R
DUBOIS         MOCLDY    50  30  46 W17G26    30.02R
LANDER         FAIR      64  31  28 SW6       29.91S
6HR MIN TEMP:  58; 6HR MAX TEMP:  65;

RIVERTON       FAIR      65  35  33 S10       29.92F
6HR MIN TEMP:  54; 6HR MAX TEMP:  65; 6HR PCP:  0.05;

CASPER         PTSUNNY   53  42  66 E8        29.96R
6HR MIN TEMP:  50; 6HR MAX TEMP:  63; 6HR PCP:  0.11;

DOUGLAS          N/A    N/A N/A N/A MISG      29.96R

$$
WYZ021-027>030-104>119-260100-
SOUTHERN WYOMING

CITY           SKY/WX    TMP DP  RH WIND       PRES   REMARKS
EVANSTON       FAIR      54  33  45 CALM      30.07S
6HR MIN TEMP:  48; 6HR MAX TEMP:  56; 6HR PCP: TRACE;

KEMMERER         N/A     48  34  57 W10       30.09F
FORT BRIDGER   CLEAR     52  37  58 N7        30.12R THUNDER
ROCK SPRINGS   FAIR      54  34  46 SW16G24   30.08R
6HR MIN TEMP:  44; 6HR MAX TEMP:  58; 6HR PCP:  0.04;

DIXON          MOCLDY    59  28  30 W7        30.05S
RAWLINS        FAIR      57  27  31 W20G26    30.04S
6HR MIN TEMP:  48; 6HR MAX TEMP:  61;

SARATOGA       FAIR      55  30  38 W16G25    30.06R
LARAMIE        FAIR      60  22  23 W22       30.03R
6HR MIN TEMP:  57; 6HR MAX TEMP:  62;

CHEYENNE       CLOUDY    61  36  39 S3        29.97S
6HR MIN TEMP:  55; 6HR MAX TEMP:  66; 6HR PCP:  0.04;

TORRINGTON     FAIR      72  30  21 N12       29.88F
6HR MIN TEMP:  62; 6HR MAX TEMP:  75; 6HR PCP: TRACE;

PINE BLUFFS    FAIR      61  37  41 NE3       29.95S

$$




USA.gov is the U.S. government's official web portal to all federal, state and local government web resources and services.